Weather History for Ft Lauderdale, FL

Change the Weather History Date:

Monday, May 27, 2013

  Actual Average Record
Temperature  
Mean Temperature 82 °F 82 °F  
Max Temperature 85 °F 88 °F 94 °F (1924)
Min Temperature 78 °F 76 °F 62 °F (1927)
Degree Days  
Heating Degree Days 0 0  
Month to date heating degree days 0 0  
Since 1 July heating degree days 85 112  
Cooling Degree Days 17 17  
Month to date cooling degree days 369 403  
Year to date cooling degree days 1339 1350  
Growing Degree Days 31 (Base 50)    
Moisture  
Dew Point 70 °F    
Average Humidity 71    
Maximum Humidity 79    
Minimum Humidity 62    
Precipitation  
Precipitation T in 0.22 in 10.22 in (2003)
Month to date precipitation 12.58 3.75  
Year to date precipitation 21.71 16.59  
Snow  
Snow 0.00 in - - ()
Month to date snowfall 0.0  
Since 1 July snowfall 0.0  
Snow Depth 0.00 in    
Sea Level Pressure  
Sea Level Pressure 30.10 in    
Wind  
Wind Speed 17 mph (East)    
Max Wind Speed 23 mph    
Max Gust Speed 30 mph    
Visibility 10 miles    
Events      
T = Trace of Precipitation, MM = Missing Value Source: NWS Daily Summary

Daily Weather History Graph

Daily Weather History Graph

Search for Another Location

Airport:

Trip Planner

Search our weather history database for the weather conditions in past years. The results will help you decide how hot, cold, wet, or windy it might be!

Date:

Astronomy

May. 27, 2013 Rise Set
Actual Time 6:29 AM EDT 8:06 PM EDT
Civil Twilight 6:04 AM EDT 8:31 PM EDT
Nautical Twilight 5:33 AM EDT 9:02 PM EDT
Astronomical Twilight 5:01 AM EDT 9:34 PM EDT
Moon 10:50 PM EDT (5/27) 9:01 AM EDT (5/27)
Length of Visible Light 14h 27m
Length of Day
13h 36m
Waning Gibbous, 91% of the Moon is Illuminated
May 27
Waning Gibbous
May 31
Last Quarter
Jun 8
New
Jun 16
First Quarter
Jun 23
Full

Hourly Weather History & Observations

Time (EDT) Temp. Heat Index Dew Point Humidity Pressure Visibility Wind Dir Wind Speed Gust Speed Precip Events Conditions
12:53 AM 78.1 °F - 64.9 °F 64% 30.15 in 10.0 mi East 16.1 mph - N/A   Partly Cloudy
1:53 AM 78.1 °F - 66.0 °F 66% 30.13 in 10.0 mi East 12.7 mph - N/A   Scattered Clouds
2:53 AM 78.1 °F - 64.9 °F 64% 30.11 in 10.0 mi East 13.8 mph - N/A   Partly Cloudy
3:53 AM 78.1 °F - 66.9 °F 68% 30.09 in 10.0 mi East 15.0 mph - N/A   Partly Cloudy
4:53 AM 78.1 °F - 66.0 °F 66% 30.08 in 10.0 mi East 12.7 mph - N/A   Scattered Clouds
5:53 AM 78.1 °F - 69.1 °F 74% 30.09 in 10.0 mi East 13.8 mph - N/A   Mostly Cloudy
6:53 AM 78.1 °F - 68.0 °F 71% 30.09 in 10.0 mi East 13.8 mph - N/A   Partly Cloudy
7:53 AM 80.1 °F 82.9 °F 69.1 °F 69% 30.11 in 10.0 mi East 15.0 mph 21.9 mph N/A   Partly Cloudy
8:53 AM 81.0 °F 84.4 °F 70.0 °F 69% 30.12 in 10.0 mi East 18.4 mph 24.2 mph N/A   Scattered Clouds
9:53 AM 82.9 °F 87.5 °F 71.1 °F 67% 30.12 in 10.0 mi East 19.6 mph 24.2 mph N/A   Scattered Clouds
10:53 AM 82.9 °F 87.5 °F 71.1 °F 67% 30.13 in 10.0 mi East 18.4 mph - N/A   Scattered Clouds
11:53 AM 84.0 °F 89.0 °F 71.1 °F 65% 30.13 in 10.0 mi East 17.3 mph - N/A   Scattered Clouds
12:31 PM 82.4 °F 87.2 °F 71.6 °F 70% 30.13 in 10.0 mi East 20.7 mph 24.2 mph N/A   Mostly Cloudy
12:53 PM 82.9 °F 87.5 °F 71.1 °F 67% 30.13 in 10.0 mi East 17.3 mph 26.5 mph N/A   Mostly Cloudy
1:53 PM 84.0 °F 89.6 °F 72.0 °F 67% 30.13 in 10.0 mi ENE 17.3 mph 25.3 mph N/A   Scattered Clouds
2:53 PM 84.0 °F 89.6 °F 72.0 °F 67% 30.11 in 10.0 mi East 18.4 mph 26.5 mph N/A   Scattered Clouds
3:53 PM 84.0 °F 89.6 °F 72.0 °F 67% 30.09 in 9.0 mi ENE 16.1 mph 26.5 mph N/A   Scattered Clouds
4:20 PM 82.4 °F 87.2 °F 71.6 °F 70% 30.08 in 10.0 mi East 13.8 mph 24.2 mph N/A   Mostly Cloudy
4:53 PM 82.0 °F 86.3 °F 71.1 °F 69% 30.07 in 10.0 mi East 17.3 mph 24.2 mph N/A   Mostly Cloudy
5:53 PM 82.0 °F 86.3 °F 71.1 °F 69% 30.06 in 10.0 mi East 18.4 mph - N/A   Scattered Clouds
6:53 PM 81.0 °F 85.2 °F 72.0 °F 74% 30.06 in 10.0 mi East 18.4 mph - N/A   Scattered Clouds
7:53 PM 81.0 °F 85.2 °F 72.0 °F 74% 30.07 in 10.0 mi East 16.1 mph - N/A   Scattered Clouds
8:06 PM 80.6 °F 84.6 °F 71.6 °F 74% 30.07 in 8.0 mi East 21.9 mph 26.5 mph N/A   Mostly Cloudy
8:16 PM 80.6 °F 84.6 °F 71.6 °F 74% 30.07 in 9.0 mi East 17.3 mph - N/A   Mostly Cloudy
8:53 PM 80.1 °F 83.8 °F 72.0 °F 76% 30.07 in 10.0 mi East 19.6 mph 25.3 mph N/A   Partly Cloudy
9:53 PM 80.1 °F 83.8 °F 72.0 °F 76% 30.09 in 10.0 mi East 19.6 mph 26.5 mph N/A   Mostly Cloudy
10:53 PM 80.1 °F 84.2 °F 73.0 °F 79% 30.09 in 10.0 mi East 19.6 mph 25.3 mph N/A   Scattered Clouds
11:53 PM 80.1 °F 83.8 °F 72.0 °F 76% 30.10 in 10.0 mi East 13.8 mph 23.0 mph 0.00 in   Mostly Cloudy